| 基因ID | taxid | GeneDate LocusTag | Symbol Synonyms | Symbolfna Fullnamefna | dbXrefs | chromosome maplocation | description | genetype fnastatus | Otherdesignations | Featuretype |
| 108300923 | 2715852 | 20211123 | LOC108300923 | Un | isopentenyl-diphosphate Delta-isomerase 1-like | pseudo | ||||
| 108300925 | 2715852 | 20211123 | LOC108300925 | Un | G-rich sequence factor 1-like | protein-coding | LOW QUALITY PROTEIN: G-rich sequence factor 1-like | |||
| 108300926 | 2715852 | 20220514 | FAM178B | Un | family with sequence similarity 178 member B | protein-coding | protein FAM178B | |||
| 108300927 | 2715852 | 20211123 | LOC108300927 | Un | S-phase kinase-associated protein 1-like | protein-coding | ||||
| 108300929 | 2715852 | 20211123 | LOC108300929 | Un | HIG1 domain family member 1A, mitochondrial-like | pseudo | ||||
| 108300930 | 2715852 | 20211123 | LOC108300930 | Un | uncharacterized LOC108300930 | ncRNA | ||||
| 108300931 | 2715852 | 20211123 | LOC108300931 | Un | uncharacterized LOC108300931 | ncRNA | ||||
| 108300933 | 2715852 | 20211123 | LOC108300933 | Un | uncharacterized LOC108300933 | ncRNA | ||||
| 108300934 | 2715852 | 20211123 | LOC108300934 | Un | TAR DNA-binding protein 43-like | pseudo | ||||
| 108300935 | 2715852 | 20211123 | LOC108300935 | Un | 60S ribosomal protein L32-like | pseudo | ||||
| 108300937 | 2715852 | 20211123 | LOC108300937 | Un | uncharacterized LOC108300937 | ncRNA | ||||
| 108300938 | 2715852 | 20211123 | LOC108300938 | Un | 60S ribosomal protein L7a-like | pseudo | ||||
| 108300939 | 2715852 | 20220510 | HEPACAM | Ensembl:ENSCCAG00000034810 | Un | hepatic and glial cell adhesion molecule | protein-coding | hepatocyte cell adhesion molecule | ||
| 108300941 | 2715852 | 20211123 | BTBD3 | Ensembl:ENSCCAG00000029511 | Un | BTB domain containing 3 | protein-coding | BTB/POZ domain-containing protein 3 | ||
| 108300946 | 2715852 | 20211123 | LOC108300946 | Un | 40S ribosomal protein S15-like | protein-coding | ||||
| 108300950 | 2715852 | 20220510 | JAG1 | Ensembl:ENSCCAG00000004650 | Un | jagged canonical Notch ligand 1 | protein-coding | protein jagged-1|jagged 1 | ||
| 108300951 | 2715852 | 20220510 | MKKS | Ensembl:ENSCCAG00000026062 | Un | MKKS centrosomal shuttling protein | protein-coding | McKusick-Kaufman/Bardet-Biedl syndromes putative chaperonin|McKusick-Kaufman syndrome | ||
| 108300952 | 2715852 | 20220510 | LOC108300952 SLX4IP | Ensembl:ENSCCAG00000036331 | Un | SLX4 interacting protein | protein-coding | protein SLX4IP | ||
| 108300954 | 2715852 | 20220510 | SNAP25 | Ensembl:ENSCCAG00000023142 | Un | synaptosome associated protein 25 | protein-coding | synaptosomal-associated protein 25 | ||
| 108300956 | 2715852 | 20211123 | LOC108300956 | Un | uncharacterized LOC108300956 | protein-coding | uncharacterized protein LOC108300956 | |||
| 108300958 | 2715852 | 20211123 | LOC108300958 | Un | uncharacterized LOC108300958 | ncRNA | ||||
| 108300959 | 2715852 | 20211123 | ANKEF1 | Ensembl:ENSCCAG00000020885 | Un | ankyrin repeat and EF-hand domain containing 1 | protein-coding | ankyrin repeat and EF-hand domain-containing protein 1 | ||
| 108300960 | 2715852 | 20211123 | LOC108300960 | Un | uncharacterized LOC108300960 | ncRNA | ||||
| 108300961 | 2715852 | 20220510 | APLP2 | Ensembl:ENSCCAG00000019969 | Un | amyloid beta precursor like protein 2 | protein-coding | amyloid-like protein 2 | ||
| 108300962 | 2715852 | 20220510 | PAK5 | Ensembl:ENSCCAG00000035395 | Un | p21 (RAC1) activated kinase 5 | protein-coding | serine/threonine-protein kinase PAK 5 | ||
| 108300963 | 2715852 | 20220510 | LAMP5 | Ensembl:ENSCCAG00000037705 | Un | lysosomal associated membrane protein family member 5 | protein-coding | lysosome-associated membrane glycoprotein 5 | ||
| 108300964 | 2715852 | 20220510 | ROBO4 | Ensembl:ENSCCAG00000023956 | Un | roundabout guidance receptor 4 | protein-coding | roundabout homolog 4 | ||
| 108300965 | 2715852 | 20211123 | LOC108300965 | Un | uncharacterized LOC108300965 | ncRNA | ||||
| 108300966 | 2715852 | 20220510 | PLCB4 | Ensembl:ENSCCAG00000034910 | Un | phospholipase C beta 4 | protein-coding | 1-phosphatidylinositol 4,5-bisphosphate phosphodiesterase beta-4 | ||
| 108300967 | 2715852 | 20211123 | TMX4 | Ensembl:ENSCCAG00000032919 | Un | thioredoxin related transmembrane protein 4 | protein-coding | thioredoxin-related transmembrane protein 4 | ||
| 108300968 | 2715852 | 20211123 | LOC108300968 | Un | 60S ribosomal protein L36-like | protein-coding | ||||
| 108300969 | 2715852 | 20220510 | HAO1 | Ensembl:ENSCCAG00000034734 | Un | hydroxyacid oxidase 1 | protein-coding | |||
| 108300970 | 2715852 | 20220510 | BMP2 | Ensembl:ENSCCAG00000017127 | Un | bone morphogenetic protein 2 | protein-coding | |||
| 108300973 | 2715852 | 20211123 | FERMT1 | Un | FERM domain containing kindlin 1 | protein-coding | fermitin family homolog 1|fermitin family member 1 | |||
| 108300975 | 2715852 | 20220510 | LRRN4 | Ensembl:ENSCCAG00000030748 | Un | leucine rich repeat neuronal 4 | protein-coding | leucine-rich repeat neuronal protein 4 | ||
| 108300976 | 2715852 | 20211123 | LOC108300976 | Un | 40S ribosomal protein SA-like | protein-coding | ||||
| 108300977 | 2715852 | 20220510 | MCM8 | Ensembl:ENSCCAG00000026974 | Un | minichromosome maintenance 8 homologous recombination repair factor | protein-coding | DNA helicase MCM8 | ||
| 108300978 | 2715852 | 20211123 | CHGB | Ensembl:ENSCCAG00000026987 | Un | chromogranin B | protein-coding | secretogranin-1 | ||
| 108300979 | 2715852 | 20220510 | TRMT6 | Ensembl:ENSCCAG00000026939 | Un | tRNA methyltransferase 6 non-catalytic subunit | protein-coding | tRNA (adenine(58)-N(1))-methyltransferase non-catalytic subunit TRM6 | ||
| 108300980 | 2715852 | 20220510 | CRLS1 | Ensembl:ENSCCAG00000037351 | Un | cardiolipin synthase 1 | protein-coding | cardiolipin synthase (CMP-forming) | ||
| 108300981 | 2715852 | 20220510 | ROBO3 | Ensembl:ENSCCAG00000025260 | Un | roundabout guidance receptor 3 | protein-coding | roundabout homolog 3 | ||
| 108300984 | 2715852 | 20220510 | SHLD1 | Ensembl:ENSCCAG00000029838 | Un | shieldin complex subunit 1 | protein-coding | |||
| 108300985 | 2715852 | 20211123 | LOC108300985 | Un | 40S ribosomal protein S3-like | pseudo | ||||
| 108300986 | 2715852 | 20211123 | LOC108300986 | Un | nucleolar GTP-binding protein 1-like | pseudo | ||||
| 108300987 | 2715852 | 20220510 | PROKR2 | Ensembl:ENSCCAG00000037325 | Un | prokineticin receptor 2 | protein-coding | |||
| 108300988 | 2715852 | 20211123 | LOC108300988 | Un | translation initiation factor IF-2-like | protein-coding | ||||
| 108300990 | 2715852 | 20211123 | LOC108300990 | Un | uncharacterized LOC108300990 | ncRNA | ||||
| 108300991 | 2715852 | 20211123 | LOC108300991 | Un | ubiquitin domain-containing protein UBFD1-like | pseudo | ||||
| 108300992 | 2715852 | 20220510 | CDS2 | Ensembl:ENSCCAG00000026795 | Un | CDP-diacylglycerol synthase 2 | protein-coding | phosphatidate cytidylyltransferase 2 | ||
| 108300993 | 2715852 | 20220510 | PCNA | Ensembl:ENSCCAG00000037224 | Un | proliferating cell nuclear antigen | protein-coding |
| 维奥蛋白资源库 - 中文蛋白资源 CopyRight © 2010-2026 |